Tracking 29892 objects as of 21-Nov-2024
HD Live streaming from Space Station
objects crossing your sky now

ONEWEB-0167

Track ONEWEB-0167 now!
10-day predictions
ONEWEB-0167 is classified as:


NORAD ID: 48064
Int'l Code: 2021-025Y
Perigee: 1,215.7 km
Apogee: 1,218.0 km
Inclination: 87.9 °
Period: 109.6 minutes
Semi major axis: 7587 km
RCS: Unknown
Launch date: March 25, 2021
Source: United States (US)
Launch site: VOSTOCHNY COSMODROME (VOSTO)
Your satellite tracking list
SL-8 DEB
Track 1 satellite(s)




NASA's NSSDC Master Catalog

Two Line Element Set (TLE):
1 48064U 21025Y   24325.73715930 -.00000098  00000-0 -30269-3 0  9995
2 48064  87.8925  74.2921 0001492 108.4883 251.6409 13.13480958178292
Source of the keplerian elements: AFSPC